KC3ROS Weather Reports


Display with metric or nautical units.
time (UTC)temp
F
wind
direction
speed
MPH
gust
MPH
rain 1hr
in
rain 24hr
in
rain mn
in
humidity
%
barometer
mb
20260502170448 40 51 1.0 4.0 0.00 0.01 0.01 91 1014.8
20260502163925 39 32 1.0 3.0 0.00 0.01 0.01 92 1014.7
20260502163422 39 37 2.0 4.0 0.00 0.01 0.01 92 1014.8
20260502162920 39 57 1.0 4.0 0.00 0.01 0.01 92 1014.7
20260502162416 39 18 2.0 5.0 0.00 0.01 0.01 92 1014.7
20260502161913 39 13 3.0 3.0 0.00 0.01 0.01 92 1014.7
20260502161409 40 37 2.0 3.0 0.00 0.01 0.01 92 1014.5
20260502160908 39 13 2.0 5.0 0.00 0.01 0.01 92 1014.6
20260502160405 39 23 4.0 6.0 0.00 0.01 0.01 92 1014.4
20260502151844 40 336 2.0 5.0 0.00 0.01 0.01 92 1014.2
20260502151340 41 350 2.0 5.0 0.00 0.01 0.01 91 1014.0
20260502150838 42 334 2.0 6.0 0.00 0.01 0.01 91 1014.0
20260502150334 42 42 2.0 4.0 0.00 0.01 0.01 94 1013.8
20260502130722 37 110 1.0 2.0 0.00 0.01 0.01 99 1014.0
20260502130220 37 233 0.0 1.0 0.00 0.01 0.01 99 1014.0
20260502123706 37 198 1.0 1.0 0.00 0.00 0.00 99 1014.4
20260502123202 37 110 0.0 1.0 0.00 0.00 0.00 99 1014.3
20260502122659 37 136 0.0 2.0 0.00 0.00 0.00 99 1014.3
20260502122155 37 80 2.0 3.0 0.00 0.00 0.00 99 1014.3
20260502121654 37 62 0.0 2.0 0.00 0.00 0.00 99 1013.9
20260502121151 37 89 1.0 3.0 0.00 0.00 0.00 99 1014.3
20260502120647 37 114 0.0 3.0 0.00 0.00 0.00 99 1014.2
20260502120144 37 203 2.0 3.0 0.00 0.00 0.00 99 1014.3
20260502115642 37 169 2.0 4.0 0.00 0.00 0.00 99 1014.2
20260502115138 37 235 2.0 3.0 0.00 0.00 0.00 99 1014.3
20260502114634 37 94 3.0 3.0 0.00 0.00 0.00 99 1014.2
20260502114132 36 125 1.0 3.0 0.00 0.00 0.00 99 1014.3
20260502113629 36 58 0.0 2.0 0.00 0.00 0.00 99 1014.4
20260502113127 36 71 1.0 3.0 0.00 0.00 0.00 99 1014.0
20260502112625 35 106 0.0 2.0 0.00 0.00 0.00 99 1014.2
20260502112122 34 92 1.0 2.0 0.00 0.00 0.00 99 1013.9
20260502111619 34 218 0.0 1.0 0.00 0.00 0.00 99 1014.2
20260502111116 34 102 0.0 3.0 0.00 0.00 0.00 99 1013.8
20260502110614 34 180 0.0 2.0 0.00 0.00 0.00 99 1013.9
20260502110112 34 93 1.0 3.0 0.00 0.00 0.00 99 1013.8
20260502105609 34 99 0.0 2.0 0.00 0.00 0.00 99 1014.0
20260502105106 34 49 0.0 1.0 0.00 0.00 0.00 99 1013.9
20260502104603 34 48 0.0 2.0 0.00 0.00 0.00 99 1013.9
20260502104100 35 80 0.0 2.0 0.00 0.00 0.00 99 1013.8
20260502103558 35 99 2.0 3.0 0.00 0.00 0.00 99 1013.8
20260502103056 35 98 2.0 3.0 0.00 0.00 0.00 99 1013.7
20260502102552 35 108 1.0 2.0 0.00 0.00 0.00 99 1014.0
20260502102049 35 173 0.0 1.0 0.00 0.00 0.00 99 1014.0
20260502101547 35 147 0.0 1.0 0.00 0.00 0.00 99 1014.2
20260502101045 35 96 1.0 2.0 0.00 0.00 0.00 99 1014.0
20260502100543 35 100 1.0 2.0 0.00 0.00 0.00 99 1014.3
20260502091518 35 209 1.0 2.0 0.00 0.00 0.00 99 1013.8
20260502091015 35 60 0.0 2.0 0.00 0.00 0.00 99 1014.0
20260502090512 34 162 1.0 2.0 0.00 0.00 0.00 99 1013.8
20260502071407 35 77 0.0 1.0 0.00 0.00 0.00 99 1013.8
20260502070905 35 130 0.0 0.0 0.00 0.00 0.00 99 1013.7
20260502070402 35 124 0.0 1.0 0.00 0.00 0.00 99 1013.9
20260502065901 35 124 0.0 1.0 0.00 0.00 0.00 99 1013.8
20260502065359 35 130 0.0 2.0 0.00 0.00 0.00 99 1013.9
20260502064856 35 112 0.0 2.0 0.00 0.00 0.00 99 1013.9
20260502064354 35 145 0.0 1.0 0.00 0.00 0.00 99 1013.8
20260502063851 35 133 0.0 2.0 0.00 0.00 0.00 99 1014.2
20260502063349 35 89 0.0 3.0 0.00 0.00 0.00 99 1014.2
20260502062846 35 126 0.0 1.0 0.00 0.00 0.00 99 1014.0
20260502062343 35 147 0.0 1.0 0.00 0.00 0.00 99 1014.2
20260502061842 35 126 0.0 1.0 0.00 0.00 0.00 99 1013.9
20260502061339 35 150 0.0 2.0 0.00 0.00 0.00 99 1014.2
20260502060835 35 133 0.0 2.0 0.00 0.00 0.00 99 1014.0
20260502060330 35 329 0.0 1.0 0.00 0.00 0.00 99 1014.4
20260502055828 35 135 0.0 1.0 0.00 0.00 0.00 99 1014.3
20260502055326 35 130 0.0 2.0 0.00 0.00 0.00 99 1014.2
20260502054825 36 350 0.0 2.0 0.00 0.00 0.00 99 1014.4
20260502054323 36 13 0.0 1.0 0.00 0.00 0.00 99 1014.3
20260502053820 36 0 0.0 1.0 0.00 0.00 0.00 99 1014.2
20260502053317 36 229 0.0 1.0 0.00 0.00 0.00 99 1014.2
20260502052815 36 246 1.0 2.0 0.00 0.00 0.00 99 1014.4
20260502052313 36 149 0.0 2.0 0.00 0.00 0.00 99 1014.5
20260502051810 36 230 1.0 2.0 0.00 0.00 0.00 99 1014.6
20260502051309 36 160 2.0 3.0 0.00 0.00 0.00 99 1014.5
20260502050804 36 326 0.0 2.0 0.00 0.00 0.00 99 1014.6
20260502050301 36 186 1.0 2.0 0.00 0.00 0.00 99 1014.5
20260502045758 36 30 1.0 2.0 0.00 0.00 0.00 99 1014.4
20260502045255 36 298 2.0 3.0 0.00 0.00 0.00 99 1014.5
20260502044752 36 343 0.0 2.0 0.00 0.00 0.00 99 1014.5
20260502044248 36 321 0.0 2.0 0.00 0.00 0.00 99 1014.5
20260502043745 37 6 0.0 2.0 0.00 0.00 0.00 99 1014.5
20260502043243 37 246 0.0 1.0 0.00 0.00 0.00 99 1014.5
20260502042742 37 3 0.0 0.0 0.00 0.00 0.00 99 1014.4
20260502042240 37 20 0.0 1.0 0.00 0.00 0.00 99 1014.5
20260502041737 37 150 0.0 2.0 0.00 0.00 0.00 99 1014.4
20260502041234 37 55 0.0 1.0 0.00 0.00 0.00 99 1014.5
20260502040731 37 243 0.0 0.0 0.00 0.00 0.00 99 1014.6
20260502040228 37 58 0.0 1.0 0.00 0.00 0.00 99 1014.5
20260502035724 37 66 0.0 1.0 0.00 0.20 0.20 99 1014.5
20260502035221 37 18 0.0 2.0 0.00 0.20 0.20 99 1014.6
20260502034718 37 22 1.0 2.0 0.00 0.20 0.20 99 1014.4
20260502034217 37 5 0.0 2.0 0.00 0.20 0.20 99 1014.4
20260502033714 37 5 2.0 3.0 0.00 0.20 0.20 99 1014.4
20260502033212 37 353 1.0 2.0 0.00 0.20 0.20 99 1014.2
20260502032708 37 359 2.0 3.0 0.00 0.20 0.20 99 1014.3
20260502032204 38 351 2.0 3.0 0.00 0.20 0.20 99 1014.2
20260502031703 37 356 0.0 1.0 0.00 0.20 0.20 99 1014.2
20260502031200 38 9 0.0 2.0 0.00 0.20 0.20 99 1014.2
20260502030659 38 339 2.0 3.0 0.00 0.20 0.20 99 1014.0
20260502030156 38 349 2.0 3.0 0.00 0.20 0.20 99 1014.3
20260502025653 38 8 1.0 3.0 0.00 0.20 0.20 99 1014.3
20260502025151 38 17 2.0 2.0 0.00 0.20 0.20 99 1014.4
20260502024649 38 341 0.0 3.0 0.00 0.20 0.20 99 1014.5
20260502024147 38 9 2.0 3.0 0.00 0.20 0.20 99 1014.3
20260502023644 38 355 2.0 3.0 0.00 0.20 0.20 99 1014.3
20260502023141 38 14 2.0 3.0 0.00 0.20 0.20 99 1014.3
20260502022638 38 345 0.0 3.0 0.00 0.20 0.20 99 1014.3
20260502022135 39 288 1.0 3.0 0.00 0.20 0.20 99 1014.2
20260502021633 39 56 0.0 4.0 0.00 0.20 0.20 99 1014.0
20260502021130 39 297 1.0 3.0 0.00 0.20 0.20 99 1013.8
20260502020627 39 3 1.0 4.0 0.00 0.20 0.20 99 1014.0
20260502020124 39 15 2.0 3.0 0.00 0.20 0.20 99 1013.8
20260502015622 39 350 2.0 3.0 0.00 0.20 0.20 99 1013.7
20260502015118 39 344 3.0 3.0 0.00 0.20 0.20 99 1013.8
20260502014615 39 330 2.0 4.0 0.00 0.20 0.20 99 1013.5
20260502014112 39 265 0.0 5.0 0.00 0.20 0.20 99 1013.7
20260502013608 39 332 1.0 3.0 0.00 0.20 0.20 99 1013.5
20260502013104 39 16 1.0 3.0 0.00 0.20 0.20 99 1013.6
20260502012602 39 326 2.0 3.0 0.00 0.20 0.20 99 1013.3
20260502012059 39 333 2.0 3.0 0.00 0.20 0.20 99 1013.5
20260502011555 39 14 2.0 3.0 0.00 0.20 0.20 99 1013.6
20260502011052 39 324 2.0 3.0 0.00 0.20 0.20 99 1013.6
20260502010549 39 15 2.0 3.0 0.00 0.20 0.20 99 1013.3
20260502010045 39 24 0.0 4.0 0.00 0.20 0.20 99 1013.1
20260502005543 39 343 2.0 4.0 0.00 0.20 0.20 99 1013.1
20260502005041 39 359 2.0 4.0 0.00 0.20 0.20 99 1012.9
20260502004536 40 329 2.0 4.0 0.00 0.20 0.20 99 1012.8
20260502004033 39 6 1.0 3.0 0.00 0.20 0.20 99 1012.5
20260502003531 40 346 3.0 5.0 0.00 0.20 0.20 99 1012.4
20260502003028 40 4 3.0 5.0 0.00 0.20 0.20 99 1012.4
20260502002524 40 9 3.0 4.0 0.00 0.20 0.20 99 1012.2
20260502002021 40 4 3.0 7.0 0.00 0.20 0.20 99 1012.1
20260502001519 40 307 1.0 6.0 0.00 0.20 0.20 99 1011.8
20260502001016 40 34 2.0 4.0 0.00 0.20 0.20 99 1011.8
20260502000515 40 24 3.0 6.0 0.00 0.20 0.20 99 1011.8
20260502000011 41 339 5.0 7.0 0.00 0.20 0.20 99 1011.8
20260501235507 41 19 3.0 9.0 0.00 0.20 0.20 99 1011.7
20260501235003 41 30 3.0 6.0 0.00 0.20 0.20 99 1011.6
20260501234458 41 9 3.0 8.0 0.00 0.20 0.20 99 1011.5
20260501233957 42 328 4.0 8.0 0.00 0.20 0.20 99 1011.4
20260501233455 42 3 1.0 3.0 0.00 0.20 0.20 99 1010.8
20260501232950 42 15 1.0 4.0 0.00 0.20 0.20 99 1010.8
20260501232448 42 357 3.0 4.0 0.00 0.20 0.20 99 1010.5
20260501231945 42 351 1.0 4.0 0.00 0.20 0.20 99 1010.6
20260501231443 42 348 3.0 6.0 0.02 0.20 0.20 99 1010.5
20260501230941 42 354 2.0 6.0 0.02 0.20 0.20 99 1010.4
20260501230440 42 15 2.0 5.0 0.05 0.19 0.19 99 1010.1
20260501225937 42 24 2.0 4.0 0.07 0.19 0.19 98 1010.5
20260501225434 42 273 2.0 5.0 0.02 0.18 0.18 98 1010.8
20260501224930 43 27 3.0 10.0 0.07 0.18 0.18 98 1010.5
20260501224427 43 16 2.0 8.0 0.19 0.18 0.18 97 1010.3
20260501223924 44 15 3.0 11.0 0.09 0.16 0.16 96 1010.1
20260501223421 46 275 0.0 2.0 0.00 0.15 0.15 97 1009.7
20260501222916 46 80 2.0 3.0 0.00 0.15 0.15 97 1009.8
20260501222414 46 177 1.0 3.0 0.00 0.15 0.15 97 1009.8
20260501221910 46 147 0.0 1.0 0.00 0.15 0.15 97 1009.6
20260501221408 46 191 0.0 2.0 0.00 0.15 0.15 97 1010.1
20260501220905 47 210 5.0 7.0 0.00 0.15 0.15 96 1010.0
20260501220403 46 130 0.0 4.0 0.00 0.15 0.15 97 1009.8
20260501215858 46 230 2.0 3.0 0.00 0.15 0.15 97 1009.8
20260501215355 46 104 0.0 3.0 0.00 0.15 0.15 98 1009.9
20260501214851 46 286 2.0 6.0 0.00 0.15 0.15 97 1009.8
20260501214346 46 221 0.0 2.0 0.00 0.15 0.15 98 1009.8
20260501213842 45 49 0.0 3.0 0.00 0.15 0.15 99 1010.0
20260501213339 45 103 2.0 2.0 0.00 0.15 0.15 99 1009.8
20260501212834 45 198 1.0 4.0 0.00 0.15 0.15 99 1009.8
20260501212332 46 169 0.0 3.0 0.00 0.15 0.15 99 1010.0
20260501211828 45 199 0.0 3.0 0.00 0.15 0.15 99 1009.9
20260501211325 45 198 2.0 3.0 0.00 0.15 0.15 99 1009.9
20260501210817 45 163 1.0 3.0 0.00 0.15 0.15 99 1009.9
20260501210314 45 135 0.0 2.0 0.00 0.15 0.15 99 1010.0
20260501205810 45 159 1.0 5.0 0.00 0.15 0.15 99 1009.9
20260501205307 44 149 1.0 2.0 0.00 0.15 0.15 99 1010.2
20260501204804 45 159 2.0 3.0 0.00 0.15 0.15 99 1010.2
20260501204301 44 187 2.0 5.0 0.02 0.15 0.15 99 1010.2
20260501203757 45 92 3.0 3.0 0.05 0.15 0.15 99 1010.3
20260501203255 45 82 2.0 3.0 0.05 0.14 0.14 99 1010.3
20260501202751 45 89 1.0 2.0 0.07 0.14 0.14 99 1010.3
20260501202248 44 29 0.0 3.0 0.05 0.13 0.13 98 1010.4
20260501201745 45 356 0.0 2.0 0.02 0.13 0.13 98 1010.3
20260501201242 45 12 0.0 2.0 0.05 0.12 0.12 98 1010.2
20260501200738 45 338 1.0 2.0 0.02 0.12 0.12 98 1010.3
20260501200236 45 34 0.0 2.0 0.02 0.11 0.11 98 1010.3
20260501195733 45 341 0.0 2.0 0.02 0.11 0.11 98 1010.3
20260501195229 45 49 2.0 2.0 0.00 0.11 0.11 98 1010.3
20260501194725 45 359 0.0 2.0 0.02 0.11 0.11 97 1010.4
20260501194221 45 58 1.0 2.0 0.02 0.11 0.11 97 1010.1
20260501193718 45 253 0.0 2.0 0.00 0.11 0.11 97 1010.2
20260501193216 45 32 0.0 1.0 0.00 0.11 0.11 97 1010.3
20260501192714 45 167 0.0 2.0 0.00 0.11 0.11 96 1010.3
20260501192210 45 157 0.0 2.0 0.00 0.11 0.11 97 1010.5
20260501191708 45 183 1.0 3.0 0.02 0.11 0.11 97 1010.5
20260501191205 44 291 1.0 3.0 0.05 0.11 0.11 97 1010.7
20260501190701 44 319 1.0 8.0 0.07 0.10 0.10 96 1010.6
20260501190156 45 11 2.0 3.0 0.07 0.09 0.09 96 1010.7
20260501185653 44 277 3.0 4.0 0.14 0.09 0.09 95 1010.8
20260501185148 44 54 4.0 5.0 0.12 0.08 0.08 96 1010.8
20260501184644 45 285 3.0 4.0 0.09 0.07 0.07 96 1010.8
20260501184139 45 256 2.0 9.0 0.07 0.06 0.06 95 1010.9
20260501183636 46 215 5.0 7.0 0.07 0.05 0.05 95 1010.8
20260501183133 45 19 0.0 3.0 0.09 0.05 0.05 94 1010.8
20260501182629 46 310 1.0 4.0 0.09 0.04 0.04 94 1010.7
20260501182126 46 285 2.0 3.0 0.05 0.03 0.03 92 1010.6
20260501181623 46 352 0.0 7.0 0.00 0.02 0.02 91 1010.6
20260501181120 46 276 3.0 5.0 0.02 0.02 0.02 91 1010.7
20260501180618 47 2 2.0 4.0 0.02 0.02 0.02 92 1010.6
20260501180114 47 288 2.0 9.0 0.02 0.02 0.02 90 1010.5
20260501175611 47 226 2.0 5.0 0.02 0.02 0.02 88 1010.6
20260501175108 47 147 2.0 8.0 0.00 0.01 0.01 88 1010.6
20260501174605 47 319 4.0 6.0 0.05 0.01 0.01 88 1010.6
20260501174102 47 195 0.0 7.0 0.02 0.01 0.01 86 1010.4
20260501173559 47 331 4.0 8.0 0.00 0.00 0.00 83 1010.6
20260501173056 47 197 4.0 11.0 0.02 0.00 0.00 81 1010.5
20260501172551 47 204 6.0 10.0 0.02 0.00 0.00 82 1010.7
20260501172047 48 220 6.0 12.0 0.00 0.00 0.00 81 1010.6
20260501171543 49 218 5.0 8.0 0.00 0.00 0.00 81 1010.5
20260501171040 50 107 4.0 7.0 0.00 0.00 0.00 78 1010.7